Location: *
(35.8942°N, 23.3025°E)
Time: 21:47:15
(UTC+00:00)

Cosmos 1633 Rocket - Pass Details

Date: 21 September 2021
Orbit: 607 x 623 km, 82.5° (Epoch: 22 October)

Event Time Altitude Azimuth Distance (km) Brightness Sun altitude
Rises 02:40:38 0° 347° (NNW) 2,910 6.5 -19.5°
Reaches altitude 10° 02:42:55 10° 342° (NNW) 1,998 5.6 -19.0°
Maximum altitude 02:47:12 50° 267° (W) 793 3.2 -18.2°
Drops below altitude 10° 02:51:27 10° 192° (SSW) 1,979 5.4 -17.4°
Sets 02:53:42 0° 187° (S) 2,878 6.3 -16.9°
